Location: Chanteloup
(48.8560°N, 2.7390°E)
Time: 13:01:47
(UTC+00:00)

Cosmos 2346 Rocket - Pass Details

Date: 24 October 2021
Orbit: 937 x 980 km, 82.9° (Epoch: 05 December)

Event Time Altitude Azimuth Distance (km) Brightness Sun altitude
Rises 19:28:12 0° 349° (N) 3,683 7.8 -27.8°
Reaches altitude 10° 19:30:43 10° 349° (N) 2,736 7.1 -28.2°
Maximum altitude 19:36:59 81° 264° (W) 997 4.5 -29.2°
Enters shadow 19:38:12 60° 190° (S) 1,110 4.6 -29.4°
